TimePDT,TemperatureF,Dew PointF,Humidity,Sea Level PressureIn,VisibilityMPH,Wind Direction,Wind SpeedMPH,Gust SpeedMPH,PrecipitationIn,Events,Conditions,WindDirDegrees,DateUTC
12:56 AM,63.0,27.0,26,29.85,10.0,SW,6.9,-,N/A,,Mostly Cloudy,220,2012-11-02 07:56:00
1:56 AM,61.0,26.1,26,29.85,10.0,SSW,8.1,-,N/A,,Mostly Cloudy,210,2012-11-02 08:56:00
2:56 AM,57.9,24.1,27,29.86,10.0,SSW,8.1,-,N/A,,Mostly Cloudy,210,2012-11-02 09:56:00
3:56 AM,55.9,27.0,33,29.86,10.0,South,5.8,-,N/A,,Scattered Clouds,190,2012-11-02 10:56:00
4:56 AM,55.0,24.1,30,29.87,10.0,SSW,9.2,-,N/A,,Scattered Clouds,200,2012-11-02 11:56:00
5:56 AM,55.9,24.1,29,29.88,10.0,SSW,8.1,-,N/A,,Partly Cloudy,210,2012-11-02 12:56:00
6:56 AM,55.0,24.1,30,29.90,10.0,SSW,10.4,-,N/A,,Partly Cloudy,200,2012-11-02 13:56:00
7:56 AM,55.9,25.0,30,29.92,10.0,SSW,8.1,-,N/A,,Partly Cloudy,200,2012-11-02 14:56:00
8:56 AM,61.0,25.0,25,29.94,10.0,SSW,6.9,-,N/A,,Partly Cloudy,200,2012-11-02 15:56:00
9:56 AM,66.9,25.0,21,29.95,10.0,Calm,Calm,-,N/A,,Clear,0,2012-11-02 16:56:00
10:56 AM,70.0,21.0,16,29.95,10.0,Calm,Calm,-,N/A,,Clear,0,2012-11-02 17:56:00
11:56 AM,73.0,23.0,15,29.94,10.0,Calm,Calm,-,N/A,,Clear,0,2012-11-02 18:56:00
12:56 PM,75.0,23.0,14,29.91,10.0,Calm,Calm,-,N/A,,Clear,0,2012-11-02 19:56:00
1:56 PM,75.9,23.0,14,29.88,10.0,Calm,Calm,-,N/A,,Clear,0,2012-11-02 20:56:00
2:56 PM,77.0,21.9,13,29.86,10.0,SW,3.5,-,N/A,,Clear,220,2012-11-02 21:56:00
3:56 PM,78.1,21.0,12,29.86,10.0,Calm,Calm,-,N/A,,Clear,0,2012-11-02 22:56:00
4:56 PM,77.0,19.9,12,29.86,10.0,Calm,Calm,-,N/A,,Partly Cloudy,0,2012-11-02 23:56:00
5:56 PM,73.9,24.1,16,29.87,10.0,South,4.6,-,N/A,,Partly Cloudy,180,2012-11-03 00:56:00
6:56 PM,71.1,24.1,17,29.89,10.0,SSW,6.9,-,N/A,,Partly Cloudy,200,2012-11-03 01:56:00
7:56 PM,68.0,27.0,21,29.91,10.0,SSW,8.1,-,N/A,,Partly Cloudy,210,2012-11-03 02:56:00
8:56 PM,64.9,27.0,24,29.92,10.0,SW,6.9,-,N/A,,Partly Cloudy,220,2012-11-03 03:56:00
9:56 PM,63.0,25.0,24,29.93,10.0,SSW,10.4,-,N/A,,Partly Cloudy,200,2012-11-03 04:56:00
10:56 PM,62.1,25.0,24,29.93,10.0,SSW,9.2,-,N/A,,Partly Cloudy,200,2012-11-03 05:56:00
11:56 PM,61.0,24.1,24,29.93,10.0,SSW,6.9,-,N/A,,Partly Cloudy,200,2012-11-03 06:56:00